Almo, KY

3:35 AM CST on February 11, 2016 (GMT -0600)
Kyle-Oakley

Weather History for KCEY - April, 2014

Change the Weather History Date:

Friday, April 11, 2014

  Actual Average (KPAH) Record (KPAH)
Temperature  
Mean Temperature 63 °F 56 °F  
Max Temperature 73 °F 68 °F 87 °F (2001)
Min Temperature 53 °F 45 °F 25 °F (1989)
Degree Days  
Heating Degree Days 2 9  
Month to date heating degree days 118  
Since 1 July heating degree days 3937  
Cooling Degree Days 0 1  
Month to date cooling degree days 11  
Year to date cooling degree days 18  
Growing Degree Days 13 (Base 50)    
Moisture  
Dew Point 51 °F    
Average Humidity 65    
Maximum Humidity 100    
Minimum Humidity 50    
Precipitation  
Precipitation 0.02 in 0.14 in 2.67 in (1944)
Month to date precipitation 1.59  
Year to date precipitation 13.11  
Snow  
Snow 0.00 in 0.00 in T in (1990)
Month to date snowfall 0.0  
Since 1 July snowfall 9.1  
Snow Depth -    
Sea Level Pressure  
Sea Level Pressure 30.05 in    
Wind  
Wind Speed 9 mph (SW)    
Max Wind Speed 17 mph    
Max Gust Speed 23 mph    
Visibility 10 miles    
Events      
T = Trace of Precipitation, MM = Missing Value Source: NWS Daily Summary

Daily Weather History Graph

Daily Weather History Graph

Search for Another Location

Airport or City:

Trip Planner

Search our weather history database for the weather conditions in past years. The results will help you decide how hot, cold, wet, or windy it might be!

Date:

Astronomy

Apr. 11, 2014 Rise Set
Actual Time 6:25 AM CDT 7:24 PM CDT
Civil Twilight 5:58 AM CDT 7:50 PM CDT
Nautical Twilight 5:27 AM CDT 8:22 PM CDT
Astronomical Twilight 4:54 AM CDT 8:54 PM CDT
Moon 4:09 PM CDT 4:14 AM CDT
Length of Visible Light 13h 52m
Length of Day
12h 59m
Waxing Gibbous, 87% of the Moon is Illuminated
Apr 11
Waxing Gibbous
Apr 15
Full
Apr 22
Last Quarter
Apr 29
New
May 6
First Quarter

Hourly Weather History & Observations

Time (CDT) Temp. Dew Point Humidity Pressure Visibility Wind Dir Wind Speed Gust Speed Precip Events Conditions
12:15 AM 62.6 °F 44.6 °F 52% 30.00 in 10.0 mi SSW 9.2 mph - N/A   Mostly Cloudy
12:35 AM 62.6 °F 44.6 °F 52% 30.00 in 10.0 mi SSW 6.9 mph - N/A   Overcast
12:55 AM 62.6 °F 44.6 °F 52% 30.00 in 10.0 mi SSW 6.9 mph 16.1 mph N/A   Scattered Clouds
1:15 AM 62.6 °F 44.6 °F 52% 30.00 in 10.0 mi SSW 8.1 mph - N/A   Partly Cloudy
1:35 AM 62.6 °F 44.6 °F 52% 30.00 in 10.0 mi SSW 8.1 mph - N/A   Mostly Cloudy
1:55 AM 62.6 °F 44.6 °F 52% 30.00 in 10.0 mi SSW 6.9 mph - N/A   Mostly Cloudy
2:15 AM 62.6 °F 44.6 °F 52% 30.00 in 10.0 mi SSW 8.1 mph - N/A   Partly Cloudy
2:35 AM 62.6 °F 44.6 °F 52% 29.99 in 10.0 mi South 8.1 mph - N/A   Clear
2:55 AM 62.6 °F 44.6 °F 52% 29.99 in 10.0 mi SSW 8.1 mph 16.1 mph N/A   Clear
3:15 AM 62.6 °F 44.6 °F 52% 30.00 in 10.0 mi SSW 10.4 mph - N/A   Clear
3:35 AM 62.6 °F 44.6 °F 52% 30.00 in 10.0 mi SSW 9.2 mph - N/A   Clear
3:55 AM 60.8 °F 44.6 °F 55% 30.00 in 10.0 mi SSW 10.4 mph - N/A   Clear
4:15 AM 62.6 °F 44.6 °F 52% 30.00 in 10.0 mi SSW 9.2 mph 17.3 mph N/A   Clear
4:35 AM 62.6 °F 44.6 °F 52% 30.00 in 10.0 mi SSW 11.5 mph 19.6 mph N/A   Clear
4:55 AM 62.6 °F 44.6 °F 52% 30.00 in 10.0 mi SW 10.4 mph 20.7 mph N/A   Clear
5:15 AM 62.6 °F 44.6 °F 52% 30.01 in 10.0 mi SSW 9.2 mph 18.4 mph N/A   Clear
5:35 AM 62.6 °F 46.4 °F 55% 30.01 in 10.0 mi SSW 12.7 mph 21.9 mph N/A   Clear
5:55 AM 62.6 °F 46.4 °F 55% 30.02 in 10.0 mi SW 12.7 mph 18.4 mph N/A   Clear
6:15 AM 60.8 °F 46.4 °F 59% 30.03 in 10.0 mi SW 13.8 mph 18.4 mph N/A   Clear
6:35 AM 60.8 °F 46.4 °F 59% 30.04 in 10.0 mi SW 10.4 mph 20.7 mph N/A   Clear
6:55 AM 60.8 °F 46.4 °F 59% 30.06 in 10.0 mi SW 15.0 mph 20.7 mph N/A   Clear
7:15 AM 60.8 °F 48.2 °F 63% 30.06 in 10.0 mi SW 13.8 mph 19.6 mph N/A   Clear
7:35 AM 62.6 °F 48.2 °F 59% 30.07 in 10.0 mi SW 12.7 mph 20.7 mph N/A   Clear
7:55 AM 60.8 °F 48.2 °F 63% 30.07 in 10.0 mi SW 11.5 mph 19.6 mph N/A   Clear
8:15 AM 62.6 °F 48.2 °F 59% 30.08 in 10.0 mi SW 11.5 mph 21.9 mph N/A   Clear
8:35 AM 64.4 °F 48.2 °F 56% 30.08 in 10.0 mi WSW 17.3 mph 23.0 mph N/A   Scattered Clouds
9:15 AM 62.6 °F 48.2 °F 59% 30.10 in 10.0 mi SW 11.5 mph 19.6 mph N/A   Mostly Cloudy
9:35 AM 62.6 °F 48.2 °F 59% 30.10 in 10.0 mi SW 11.5 mph 16.1 mph N/A   Mostly Cloudy
9:55 AM 64.4 °F 50.0 °F 59% 30.11 in 10.0 mi SW 9.2 mph - N/A   Scattered Clouds
10:35 AM 64.4 °F 50.0 °F 59% 30.11 in 10.0 mi WSW 10.4 mph - N/A   Clear
10:55 AM 66.2 °F 50.0 °F 56% 30.11 in 10.0 mi WSW 16.1 mph - N/A   Clear
11:15 AM 66.2 °F 51.8 °F 60% 30.11 in 10.0 mi West 11.5 mph 18.4 mph N/A   Clear
11:35 AM 66.2 °F 51.8 °F 60% 30.11 in 10.0 mi SW 11.5 mph 16.1 mph N/A   Clear
11:55 AM 68.0 °F 51.8 °F 56% 30.10 in 10.0 mi SW 10.4 mph 16.1 mph N/A   Clear
12:15 PM 68.0 °F 53.6 °F 60% 30.09 in 10.0 mi SW 11.5 mph 19.6 mph N/A   Clear
12:35 PM 68.0 °F 53.6 °F 60% 30.09 in 10.0 mi SW 9.2 mph - N/A   Clear
12:55 PM 69.8 °F 53.6 °F 56% 30.09 in 10.0 mi SSW 6.9 mph 17.3 mph N/A   Partly Cloudy
1:15 PM 71.6 °F 53.6 °F 53% 30.08 in 10.0 mi SW 8.1 mph - N/A   Clear
1:35 PM 71.6 °F 53.6 °F 53% 30.08 in 10.0 mi SW 8.1 mph - N/A   Clear
1:55 PM 71.6 °F 53.6 °F 53% 30.08 in 10.0 mi WSW 11.5 mph 19.6 mph N/A   Partly Cloudy
2:15 PM 73.4 °F 53.6 °F 50% 30.07 in 10.0 mi West 9.2 mph - N/A   Partly Cloudy
2:35 PM 73.4 °F 53.6 °F 50% 30.06 in 10.0 mi WSW 8.1 mph 16.1 mph N/A   Partly Cloudy
2:55 PM 73.4 °F 55.4 °F 53% 30.05 in 10.0 mi SSW 6.9 mph - N/A   Clear
3:15 PM 73.4 °F 53.6 °F 50% 30.05 in 10.0 mi WSW 5.8 mph - N/A   Scattered Clouds
3:35 PM 73.4 °F 53.6 °F 50% 30.05 in 10.0 mi West 6.9 mph - N/A   Overcast
3:55 PM 71.6 °F 55.4 °F 57% 30.06 in 10.0 mi NW 11.5 mph - N/A   Overcast
4:15 PM 71.6 °F 55.4 °F 57% 30.07 in 10.0 mi NW 10.4 mph - N/A   Overcast
4:35 PM 69.8 °F 55.4 °F 60% 30.07 in 10.0 mi WNW 8.1 mph - N/A   Overcast
4:55 PM 66.2 °F 57.2 °F 73% 30.06 in 10.0 mi SW 4.6 mph - N/A   Overcast
5:15 PM 66.2 °F 57.2 °F 73% 30.04 in 3.0 mi SSW 6.9 mph - 0.01 in   Mostly Cloudy
5:35 PM 64.4 °F 57.2 °F 77% 30.03 in 10.0 mi South 9.2 mph - 0.01 in   Mostly Cloudy
5:55 PM 64.4 °F 57.2 °F 77% 30.01 in 10.0 mi South 11.5 mph 18.4 mph 0.01 in   Scattered Clouds
6:15 PM 66.2 °F 55.4 °F 68% 30.01 in 10.0 mi ENE 6.9 mph - N/A   Mostly Cloudy
6:35 PM 66.2 °F 55.4 °F 68% 30.01 in 10.0 mi East 6.9 mph - N/A   Mostly Cloudy
6:55 PM 66.2 °F 55.4 °F 68% 30.00 in 10.0 mi Calm Calm - 0.01 in   Partly Cloudy
7:15 PM 64.4 °F 57.2 °F 77% 30.02 in 10.0 mi WNW 5.8 mph - N/A   Clear
7:35 PM 64.4 °F 55.4 °F 73% 30.03 in 10.0 mi WNW 9.2 mph - N/A   Clear
7:55 PM 64.4 °F 57.2 °F 77% 30.05 in 10.0 mi NNW 9.2 mph - N/A   Clear
8:15 PM 62.6 °F 57.2 °F 82% 30.06 in 10.0 mi NW 4.6 mph - N/A   Clear
8:35 PM 60.8 °F 57.2 °F 88% 30.08 in 10.0 mi NW 6.9 mph - N/A   Clear
8:55 PM 60.8 °F 57.2 °F 88% 30.08 in 10.0 mi NNW 4.6 mph - N/A   Clear
9:15 PM 57.2 °F 55.4 °F 94% 30.09 in 10.0 mi Calm Calm - N/A   Clear
9:35 PM 55.4 °F 55.4 °F 100% 30.09 in 10.0 mi Calm Calm - N/A   Clear
9:55 PM 55.4 °F 55.4 °F 100% 30.10 in 10.0 mi Calm Calm - N/A   Clear
10:15 PM 55.4 °F 55.4 °F 100% 30.10 in 10.0 mi South 3.5 mph - N/A   Clear
10:35 PM 55.4 °F 55.4 °F 100% 30.10 in 10.0 mi SSE 4.6 mph - N/A   Clear
10:55 PM 55.4 °F 55.4 °F 100% 30.10 in 10.0 mi SSE 4.6 mph - N/A   Clear
11:15 PM 55.4 °F 55.4 °F 100% 30.10 in 10.0 mi SSE 4.6 mph - N/A   Clear
11:35 PM 53.6 °F 53.6 °F 100% 30.10 in 8.0 mi SSE 4.6 mph - N/A   Clear
11:55 PM 55.4 °F 55.4 °F 100% 30.10 in 10.0 mi SSE 3.5 mph - N/A   Clear